Location: De Greiden
(52.9496°N, 5.9137°E)
Time: 02:00:39
(UTC+00:00)

SL-08 RB Rocket - Pass Details

Date: 24 January 2021
Orbit: 647 x 684 km, 97.8° (Epoch: 26 February)

Event Time Altitude Azimuth Distance (km) Brightness Sun altitude
Exits shadow 18:32:23 38° 146° (SE) 1,008 4.3 -21.6°
Maximum altitude 18:34:03 71° 72° (ENE) 695 3.5 -21.9°
Drops below altitude 10° 18:38:33 10° 349° (N) 2,067 6.3 -22.5°
Sets 18:40:46 0° 348° (NNW) 2,980 7.2 -22.9°
